This is the latest recevied weather packets stored in our database for station/object N8SHA. If no packets are shown the sender has not sent any weather packets the latest 10 day(s).
| Time | Temp. | Humidity | Pressure | Rain* | Wind** | Luminosity | Snow |
|---|---|---|---|---|---|---|---|
| 1777471840 | 7.22° C | 96% | 1012.8 hPa | 0 mm | - | 165 W/m² | - |
| 1777471537 | 7.22° C | 96% | 1012.9 hPa | 0 mm | - | 169 W/m² | - |
| 1777471234 | 7.22° C | 96% | 1012.9 hPa | 0 mm | - | 154 W/m² | - |
| 1777470931 | 6.67° C | 96% | 1013 hPa | 0 mm | - | 107 W/m² | - |
| 1777470628 | 7.22° C | 96% | 1013.2 hPa | 0 mm | - | 78 W/m² | - |
| 1777470323 | 7.22° C | 96% | 1013.1 hPa | 0 mm | - | 76 W/m² | - |
| 1777470020 | 7.22° C | 96% | 1013.2 hPa | 0 mm | - | 85 W/m² | - |
| 1777469715 | 7.22° C | 97% | 1013.1 hPa | 0 mm | - | 98 W/m² | - |
| 1777469412 | 7.78° C | 97% | 1013.3 hPa | 0.51 mm | - | 64 W/m² | - |
| 1777469107 | 7.78° C | 96% | 1013.1 hPa | 0.51 mm | - | 59 W/m² | - |
| 1777468801 | 7.78° C | 97% | 1013.2 hPa | 0 mm | - | 90 W/m² | - |
| 1777468498 | 7.78° C | 97% | 1013.3 hPa | 0 mm | - | 121 W/m² | - |
| 1777468195 | 7.78° C | 97% | 1013.4 hPa | 0 mm | - | 77 W/m² | - |
| 1777467891 | 7.78° C | 97% | 1013.4 hPa | 0 mm | - | 97 W/m² | - |
| 1777467587 | 7.78° C | 97% | 1013.3 hPa | 0 mm | - | 88 W/m² | - |
| 1777467282 | 7.78° C | 97% | 1013.2 hPa | 0 mm | - | 89 W/m² | - |
| 1777466978 | 7.78° C | 97% | 1013.2 hPa | 0 mm | - | 56 W/m² | - |
| 1777466676 | 7.78° C | 97% | 1013.2 hPa | 0 mm | - | 91 W/m² | - |
| 1777466373 | 7.78° C | 96% | 1013.3 hPa | 0.51 mm | - | 81 W/m² | - |
| 1777466069 | 7.78° C | 96% | 1013.7 hPa | 0.51 mm | - | 72 W/m² | - |
| 1777465766 | 7.78° C | 96% | 1013.6 hPa | 0 mm | - | 76 W/m² | - |
| 1777465462 | 7.78° C | 96% | 1013.4 hPa | 0 mm | - | 40 W/m² | - |
| 1777465160 | 7.78° C | 96% | 1013.8 hPa | 0 mm | - | 31 W/m² | - |
* Rain latest hour (hover to see other rain measurements)
** Current wind speed in m/s (hover to see current wind gust speed)